This is the latest recevied weather packets stored in our database for station/object IR4UCA-3. If no packets are shown the sender has not sent any weather packets the latest 1 day(s).
| Time | Temp. | Humidity | Pressure | Rain* | Wind** | Luminosity | Snow |
|---|---|---|---|---|---|---|---|
| 1836274747 | 20° C | 83% | 1024.5 hPa | 0 mm | 1.34 m/s, 238° | - | - |
| 1836274623 | 20° C | 83% | 1024.6 hPa | 0 mm | 1.34 m/s, 186° | - | - |
| 1836274503 | 20° C | 83% | 1024.6 hPa | 0 mm | 1.34 m/s, 203° | - | - |
| 1836274479 | 20° C | 83% | 1024.6 hPa | 0 mm | 1.79 m/s, 202° | - | - |
| 1836274390 | 20° C | 83% | 1024.6 hPa | 0 mm | 1.79 m/s, 182° | - | - |
| 1836274358 | 20° C | 83% | 1024.5 hPa | 0 mm | 1.79 m/s, 212° | - | - |
| 1836274263 | 20° C | 83% | 1024.7 hPa | 0 mm | 1.79 m/s, 214° | - | - |
| 1836274246 | 20° C | 83% | 1024.5 hPa | 0 mm | 2.24 m/s, 200° | - | - |
| 1836274145 | 20° C | 83% | 1024.7 hPa | 0 mm | 2.68 m/s, 212° | - | - |
| 1836274118 | 20° C | 83% | 1024.5 hPa | 0 mm | 1.34 m/s, 214° | - | - |
| 1836274030 | 20° C | 83% | 1024.7 hPa | 0 mm | 2.24 m/s, 204° | - | - |
| 1836273901 | 20° C | 84% | 1024.7 hPa | 0 mm | 3.13 m/s, 190° | - | - |
| 1778009727 | 17.78° C | 87% | 1012 hPa | 0 mm | 0.89 m/s, 0° | - | - |
| 1778009606 | 17.78° C | 87% | 1011.9 hPa | 0 mm | 1.79 m/s, 0° | - | - |
| 1778009486 | 17.78° C | 86% | 1011.8 hPa | 0 mm | 1.79 m/s, 0° | - | - |
| 1778009363 | 17.78° C | 86% | 1011.9 hPa | 0 mm | 0.89 m/s, 0° | - | - |
| 1778009242 | 17.78° C | 86% | 1011.8 hPa | 0 mm | 0.89 m/s, 0° | - | - |
| 1778009121 | 18.33° C | 86% | 1011.7 hPa | 0 mm | 0.89 m/s, 0° | - | - |
| 1778009000 | 18.33° C | 86% | 1011.8 hPa | 0 mm | 1.79 m/s, 0° | - | - |
| 1778008877 | 18.33° C | 85% | 1011.8 hPa | 0 mm | 0.89 m/s, 0° | - | - |
| 1778008757 | 18.33° C | 85% | 1011.8 hPa | 0 mm | 0.89 m/s, 0° | - | - |
| 1778008636 | 18.33° C | 85% | 1011.7 hPa | 0 mm | 1.34 m/s, 0° | - | - |
| 1778008525 | 18.33° C | 85% | 1011.7 hPa | 0 mm | 1.79 m/s, 0° | - | - |
| 1778008398 | 18.33° C | 85% | 1011.8 hPa | 0 mm | 0.89 m/s, 0° | - | - |
| 1778008275 | 18.33° C | 84% | 1011.7 hPa | 0 mm | 0.45 m/s, 0° | - | - |
* Rain latest hour (hover to see other rain measurements)
** Current wind speed in m/s (hover to see current wind gust speed)